When you browse on this site, cookies collect data to enhance your experience and personalize the content and advertising you see.
Visit our Privacy Policy to learn more. By continuing to use the site, you agree to this use of cookies and data.
  • en France
  • Liste des pays
  • À 7 jours
  • Température de l'eau
  • Carte satellitaire
  • Carte météo
  • Widgets météo
  • user-avatar
    Se connecter

    Météo par heure à Zhilina

    Ce jour, 20 Juin, Jeudi

    Heure Température Précipitation Vent Pression Humidité
    00:00 +19°C° 0 mm 1 m/s 728 mmHg 91%
    01:00 +16°C° 0 mm 0 m/s 728 mmHg 91%
    02:00 +16°C° 0 mm 0 m/s 728 mmHg 91%
    03:00 +16°C° 0 mm 0 m/s 728 mmHg 91%
    04:00 +16°C° 0 mm 0 m/s 728 mmHg 91%
    05:00 +17°C° 0 mm 0 m/s 728 mmHg 88%
    06:00 +19°C° 0 mm 0 m/s 729 mmHg 84%
    07:00 +20°C° 0 mm 0 m/s 729 mmHg 79%
    08:00 +24°C° 0.1 mm 1 m/s 729 mmHg 71%
    09:00 +26°C° 0.1 mm 1 m/s 729 mmHg 63%
    10:00 +27°C° 0.1 mm 1 m/s 729 mmHg 54%
    11:00 +27°C° 0.4 mm 1 m/s 729 mmHg 58%
    12:00 +27°C° 0.4 mm 2 m/s 729 mmHg 61%
    13:00 +27°C° 0 mm 2 m/s 729 mmHg 63%
    14:00 +26°C° 1.3 mm 1 m/s 729 mmHg 68%
    15:00 +26°C° 1.3 mm 1 m/s 729 mmHg 73%
    16:00 +23°C° 1.3 mm 0 m/s 728 mmHg 79%
    17:00 +22°C° 0.6 mm 0 m/s 728 mmHg 81%
    18:00 +21°C° 0.6 mm 0 m/s 728 mmHg 84%
    19:00 +20°C° 0.6 mm 0 m/s 729 mmHg 87%
    20:00 +19°C° 0 mm 0 m/s 729 mmHg 88%
    21:00 +18°C° 0 mm 0 m/s 729 mmHg 89%
    22:00 +17°C° 0 mm 0 m/s 729 mmHg 91%
    23:00 +17°C° 0.1 mm 0 m/s 729 mmHg 91%

    Demain, 21 Juin, Vendredi

    Heure Température Précipitation Vent Pression Humidité
    00:00 +17°C° 0.1 mm 0 m/s 729 mmHg 91%
    01:00 +16°C° 0.1 mm 0 m/s 729 mmHg 92%
    02:00 +16°C° 0 mm 0 m/s 729 mmHg 92%
    03:00 +16°C° 0 mm 0 m/s 730 mmHg 93%
    04:00 +16°C° 0 mm 0 m/s 730 mmHg 93%
    05:00 +18°C° 0 mm 0 m/s 730 mmHg 89%
    06:00 +19°C° 0 mm 0 m/s 730 mmHg 86%
    07:00 +21°C° 0 mm 0 m/s 731 mmHg 82%
    08:00 +25°C° 0.5 mm 1 m/s 731 mmHg 75%
    09:00 +26°C° 0.5 mm 1 m/s 731 mmHg 67%
    10:00 +28°C° 0.5 mm 1 m/s 732 mmHg 60%
    11:00 +28°C° 0.4 mm 2 m/s 732 mmHg 57%
    12:00 +29°C° 0.4 mm 2 m/s 731 mmHg 54%
    13:00 +29°C° 0.4 mm 2 m/s 731 mmHg 52%
    14:00 +29°C° 0.3 mm 2 m/s 731 mmHg 54%
    15:00 +28°C° 0.3 mm 2 m/s 731 mmHg 57%
    16:00 +28°C° 0.3 mm 2 m/s 731 mmHg 59%
    17:00 +26°C° 0.5 mm 2 m/s 731 mmHg 68%
    18:00 +25°C° 0.5 mm 1 m/s 731 mmHg 78%
    19:00 +23°C° 0.5 mm 1 m/s 731 mmHg 87%
    20:00 +22°C° 0.2 mm 1 m/s 731 mmHg 89%
    21:00 +20°C° 0.2 mm 1 m/s 731 mmHg 91%
    22:00 +19°C° 0.2 mm 1 m/s 732 mmHg 93%
    23:00 +19°C° 0 mm 1 m/s 732 mmHg 94%

    Après-demain, 22 Juin, Samedi

    Heure Température Précipitation Vent Pression Humidité
    00:00 +19°C° 0 mm 1 m/s 732 mmHg 94%
    01:00 +18°C° 0 mm 1 m/s 732 mmHg 95%
    02:00 +18°C° 0 mm 1 m/s 732 mmHg 96%
    03:00 +18°C° 0 mm 1 m/s 732 mmHg 96%
    04:00 +18°C° 0 mm 1 m/s 732 mmHg 97%
    05:00 +18°C° 0 mm 2 m/s 732 mmHg 94%
    06:00 +19°C° 0 mm 2 m/s 733 mmHg 91%
    07:00 +21°C° 0 mm 2 m/s 733 mmHg 88%
    08:00 +23°C° 0.3 mm 2 m/s 733 mmHg 81%
    09:00 +25°C° 0.3 mm 2 m/s 733 mmHg 75%
    10:00 +26°C° 0.3 mm 3 m/s 733 mmHg 69%
    11:00 +26°C° 1.5 mm 3 m/s 733 mmHg 72%
    12:00 +26°C° 1.5 mm 3 m/s 733 mmHg 76%
    13:00 +26°C° 1.5 mm 3 m/s 732 mmHg 80%
    14:00 +25°C° 1.9 mm 2 m/s 732 mmHg 83%
    15:00 +24°C° 1.9 mm 2 m/s 732 mmHg 87%
    16:00 +23°C° 1.9 mm 2 m/s 732 mmHg 90%
    17:00 +21°C° 0.3 mm 2 m/s 732 mmHg 91%
    18:00 +21°C° 0.3 mm 2 m/s 732 mmHg 92%
    19:00 +20°C° 0.3 mm 2 m/s 732 mmHg 92%
    20:00 +20°C° 0.1 mm 2 m/s 731 mmHg 94%
    21:00 +19°C° 0.1 mm 2 m/s 731 mmHg 95%
    22:00 +18°C° 0.1 mm 2 m/s 731 mmHg 96%
    23:00 +18°C° 0.1 mm 2 m/s 731 mmHg 97%

    23 Juin, Dimanche

    Heure Température Précipitation Vent Pression Humidité
    00:00 +18°C° 0.1 mm 2 m/s 731 mmHg 97%
    01:00 +18°C° 0.1 mm 2 m/s 731 mmHg 98%
    02:00 +18°C° 0.1 mm 2 m/s 731 mmHg 98%
    03:00 +18°C° 0.1 mm 2 m/s 731 mmHg 98%
    04:00 +18°C° 0.1 mm 2 m/s 731 mmHg 98%
    05:00 +19°C° 0.1 mm 2 m/s 731 mmHg 95%
    06:00 +20°C° 0.1 mm 2 m/s 731 mmHg 93%
    07:00 +21°C° 0.1 mm 3 m/s 732 mmHg 90%
    08:00 +22°C° 0.7 mm 3 m/s 732 mmHg 87%
    09:00 +22°C° 0.7 mm 3 m/s 732 mmHg 84%
    10:00 +24°C° 0.7 mm 3 m/s 732 mmHg 82%
    11:00 +24°C° 0.5 mm 3 m/s 732 mmHg 79%
    12:00 +25°C° 0.5 mm 3 m/s 733 mmHg 76%
    13:00 +25°C° 0.5 mm 4 m/s 733 mmHg 73%
    14:00 +25°C° 0.3 mm 3 m/s 733 mmHg 76%
    15:00 +24°C° 0.3 mm 3 m/s 733 mmHg 79%
    16:00 +24°C° 0.3 mm 3 m/s 733 mmHg 82%
    17:00 +22°C° 0 mm 3 m/s 733 mmHg 83%
    18:00 +21°C° 0 mm 3 m/s 733 mmHg 85%
    19:00 +21°C° 0 mm 3 m/s 733 mmHg 86%
    20:00 +20°C° 0 mm 3 m/s 733 mmHg 90%
    21:00 +19°C° 0 mm 2 m/s 733 mmHg 93%
    22:00 +18°C° 0 mm 2 m/s 734 mmHg 96%
    23:00 +18°C° 0 mm 2 m/s 734 mmHg 97%

    24 Juin, Lundi

    Heure Température Précipitation Vent Pression Humidité
    00:00 +18°C° 0 mm 2 m/s 734 mmHg 97%
    01:00 +18°C° 0 mm 2 m/s 734 mmHg 97%
    02:00 +18°C° 0 mm 2 m/s 734 mmHg 98%
    03:00 +17°C° 0 mm 2 m/s 734 mmHg 98%
    04:00 +17°C° 0 mm 2 m/s 734 mmHg 98%
    05:00 +18°C° 0 mm 2 m/s 734 mmHg 94%
    06:00 +20°C° 0 mm 2 m/s 735 mmHg 89%
    07:00 +21°C° 0 mm 3 m/s 735 mmHg 85%
    08:00 +22°C° 0 mm 3 m/s 736 mmHg 80%
    09:00 +24°C° 0 mm 3 m/s 736 mmHg 75%
    10:00 +25°C° 0 mm 4 m/s 736 mmHg 70%
    11:00 +26°C° 0 mm 3 m/s 736 mmHg 67%
    12:00 +27°C° 0 mm 3 m/s 736 mmHg 64%
    13:00 +28°C° 0 mm 3 m/s 736 mmHg 61%
    14:00 +27°C° 0 mm 3 m/s 736 mmHg 63%
    15:00 +27°C° 0 mm 3 m/s 736 mmHg 64%
    16:00 +27°C° 0 mm 4 m/s 736 mmHg 66%
    17:00 +26°C° 0 mm 3 m/s 736 mmHg 72%
    18:00 +25°C° 0 mm 2 m/s 736 mmHg 78%
    19:00 +24°C° 0 mm 2 m/s 736 mmHg 84%
    20:00 +21°C° 0 mm 2 m/s 736 mmHg 88%
    21:00 +21°C° 0 mm 1 m/s 736 mmHg 93%
    22:00 +20°C° 0 mm 1 m/s 737 mmHg 97%
    23:00 +20°C° 0 mm 1 m/s 737 mmHg 97%

    25 Juin, Mardi

    Heure Température Précipitation Vent Pression Humidité
    00:00 +19°C° 0 mm 1 m/s 737 mmHg 97%
    01:00 +19°C° 0 mm 1 m/s 737 mmHg 97%
    02:00 +19°C° 0 mm 1 m/s 737 mmHg 97%
    03:00 +19°C° 0 mm 1 m/s 737 mmHg 97%
    04:00 +19°C° 0 mm 1 m/s 737 mmHg 97%
    05:00 +21°C° 0 mm 1 m/s 737 mmHg 91%
    06:00 +23°C° 0 mm 1 m/s 737 mmHg 85%
    07:00 +24°C° 0 mm 1 m/s 738 mmHg 80%
    08:00 +26°C° 0 mm 1 m/s 738 mmHg 70%
    09:00 +29°C° 0 mm 1 m/s 738 mmHg 61%
    10:00 +31°C° 0 mm 1 m/s 739 mmHg 52%
    11:00 +31°C° 0 mm 1 m/s 739 mmHg 49%
    12:00 +32°C° 0 mm 1 m/s 738 mmHg 46%
    13:00 +33°C° 0 mm 1 m/s 738 mmHg 44%
    14:00 +32°C° 0.2 mm 2 m/s 738 mmHg 49%
    15:00 +31°C° 0.2 mm 2 m/s 738 mmHg 54%
    16:00 +31°C° 0.2 mm 2 m/s 738 mmHg 59%
    17:00 +29°C° 0.7 mm 2 m/s 737 mmHg 68%
    18:00 +27°C° 0.7 mm 2 m/s 737 mmHg 78%
    19:00 +25°C° 0.7 mm 1 m/s 737 mmHg 88%
    20:00 +24°C° 0 mm 1 m/s 737 mmHg 90%
    21:00 +23°C° 0 mm 1 m/s 738 mmHg 92%
    22:00 +22°C° 0 mm 1 m/s 738 mmHg 94%
    23:00 +21°C° 0 mm 1 m/s 737 mmHg 95%
    Voir plus